Year,Month,Day,Hour,Minute,Value (Times are PST for temperature in C)
2016,10,28,00,00,9.80
2016,10,28,00,01,9.80
2016,10,28,00,02,9.80
2016,10,28,00,03,9.80
2016,10,28,00,04,9.80
2016,10,28,00,05,9.80
2016,10,28,00,06,9.80
2016,10,28,00,07,9.80
2016,10,28,00,08,9.80
2016,10,28,00,09,9.80
2016,10,28,00,10,9.80
2016,10,28,00,11,9.80
2016,10,28,00,12,9.80
2016,10,28,00,13,9.80
2016,10,28,00,14,9.80
2016,10,28,00,15,9.80
2016,10,28,00,16,9.70
2016,10,28,00,17,9.70
2016,10,28,00,18,9.70
2016,10,28,00,19,9.70
2016,10,28,00,20,9.70
2016,10,28,00,21,9.70
2016,10,28,00,22,9.70
2016,10,28,00,23,9.70
2016,10,28,00,24,9.70
2016,10,28,00,25,9.70
2016,10,28,00,26,9.70
2016,10,28,00,27,9.70
2016,10,28,00,28,9.70
2016,10,28,00,29,9.70
2016,10,28,00,30,9.70
2016,10,28,00,31,9.70
2016,10,28,00,32,9.70
2016,10,28,00,33,9.70
2016,10,28,00,34,9.70
2016,10,28,00,35,9.70
2016,10,28,00,36,9.70
2016,10,28,00,37,9.70
2016,10,28,00,38,9.70
2016,10,28,00,39,9.70
2016,10,28,00,40,9.70
2016,10,28,00,41,9.70
2016,10,28,00,42,9.70
2016,10,28,00,43,9.70
2016,10,28,00,44,9.70
2016,10,28,00,45,9.70
2016,10,28,00,46,9.60
2016,10,28,00,47,9.60
2016,10,28,00,48,9.60
2016,10,28,00,49,9.60
2016,10,28,00,50,9.60
2016,10,28,00,51,9.60
2016,10,28,00,52,9.60
2016,10,28,00,53,9.60
2016,10,28,00,54,9.60
2016,10,28,00,55,9.60
2016,10,28,00,56,9.60
2016,10,28,00,57,9.60
2016,10,28,00,58,9.60
2016,10,28,00,59,9.60
2016,10,28,01,00,9.60
2016,10,28,01,01,9.60
2016,10,28,01,02,9.60
2016,10,28,01,03,9.60
2016,10,28,01,04,9.60
2016,10,28,01,05,9.60
2016,10,28,01,06,9.60
2016,10,28,01,07,9.60
2016,10,28,01,08,9.60
2016,10,28,01,09,9.60
2016,10,28,01,10,9.60
2016,10,28,01,11,9.60
2016,10,28,01,12,9.50
2016,10,28,01,13,9.60
2016,10,28,01,14,9.50
2016,10,28,01,15,9.50
2016,10,28,01,16,9.50
2016,10,28,01,17,9.50
2016,10,28,01,18,9.50
2016,10,28,01,19,9.50
2016,10,28,01,20,9.50
2016,10,28,01,21,9.50
2016,10,28,01,22,9.50
2016,10,28,01,23,9.50
2016,10,28,01,24,9.50
2016,10,28,01,25,9.50
2016,10,28,01,26,9.50
2016,10,28,01,27,9.50
2016,10,28,01,28,9.50
2016,10,28,01,29,9.50
2016,10,28,01,30,9.40
2016,10,28,01,31,9.50
2016,10,28,01,32,9.50
2016,10,28,01,33,9.50
2016,10,28,01,34,9.40
2016,10,28,01,35,9.40
2016,10,28,01,36,9.50
2016,10,28,01,37,9.50
2016,10,28,01,38,9.40
2016,10,28,01,39,9.40
2016,10,28,01,40,9.50
2016,10,28,01,41,9.50
2016,10,28,01,42,9.40
2016,10,28,01,43,9.40
2016,10,28,01,44,9.40
2016,10,28,01,45,9.40
2016,10,28,01,46,9.40
2016,10,28,01,47,9.40
2016,10,28,01,48,9.40
2016,10,28,01,49,9.40
2016,10,28,01,50,9.40
2016,10,28,01,51,9.40
2016,10,28,01,52,9.40
2016,10,28,01,53,9.40
2016,10,28,01,54,9.40
2016,10,28,11,49,10.10
2016,10,28,11,50,10.10
2016,10,28,11,51,10.10
2016,10,28,11,52,10.10
2016,10,28,11,53,10.10
2016,10,28,11,54,10.10
2016,10,28,11,55,10.10
2016,10,28,11,56,10.10
2016,10,28,11,57,10.10
2016,10,28,11,58,10.10
2016,10,28,11,59,10.10
2016,10,28,12,00,10.20
2016,10,28,12,01,10.20
2016,10,28,12,02,10.20
2016,10,28,12,03,10.20
2016,10,28,12,04,10.20
2016,10,28,12,05,10.20
2016,10,28,12,06,10.20
2016,10,28,12,07,10.20
2016,10,28,12,08,10.20
2016,10,28,12,09,10.20
2016,10,28,12,10,10.30
2016,10,28,12,11,10.30
2016,10,28,12,12,10.30
2016,10,28,12,13,10.30
2016,10,28,12,14,10.30
2016,10,28,12,15,10.30
2016,10,28,12,16,10.30
2016,10,28,12,17,10.30
2016,10,28,12,18,10.30
2016,10,28,12,19,10.30
2016,10,28,12,20,10.30
2016,10,28,12,21,10.30
2016,10,28,12,22,10.30
2016,10,28,12,23,10.30
2016,10,28,12,24,10.40
2016,10,28,12,25,10.40
2016,10,28,12,26,10.40
2016,10,28,12,27,10.40
2016,10,28,12,28,10.40
2016,10,28,12,29,10.40
2016,10,28,12,30,10.40
2016,10,28,12,31,10.40
2016,10,28,12,32,10.40
2016,10,28,12,33,10.50
2016,10,28,12,34,10.50
2016,10,28,12,35,10.50
2016,10,28,12,36,10.50
2016,10,28,12,37,10.50
2016,10,28,12,38,10.60
2016,10,28,12,39,10.60
2016,10,28,12,40,10.60
2016,10,28,12,41,10.60
2016,10,28,12,42,10.60
2016,10,28,12,43,10.60
2016,10,28,12,44,10.60
2016,10,28,12,45,10.60
2016,10,28,12,46,10.60
2016,10,28,12,47,10.60
2016,10,28,12,48,10.60
2016,10,28,12,49,10.60
2016,10,28,12,50,10.60
2016,10,28,12,51,10.60
2016,10,28,12,52,10.70
2016,10,28,12,53,10.70
2016,10,28,12,54,10.70
2016,10,28,12,55,10.70
2016,10,28,12,56,10.70
2016,10,28,12,57,10.70
2016,10,28,12,58,10.80
2016,10,28,12,59,10.80
2016,10,28,13,00,10.80
2016,10,28,13,01,10.80
2016,10,28,13,02,10.70
2016,10,28,13,03,10.70
2016,10,28,13,04,10.80
2016,10,28,13,05,10.80
2016,10,28,13,06,10.80
2016,10,28,13,07,10.80
2016,10,28,13,08,10.80
2016,10,28,13,09,10.80
2016,10,28,13,10,10.80
2016,10,28,13,11,10.80
2016,10,28,13,12,10.90
2016,10,28,13,13,10.90
2016,10,28,13,14,10.90
2016,10,28,13,15,10.90
2016,10,28,13,16,10.90
2016,10,28,13,17,10.90
2016,10,28,13,18,10.90
2016,10,28,13,19,10.90
2016,10,28,13,20,10.90
2016,10,28,13,21,10.90
2016,10,28,13,22,10.90
2016,10,28,13,23,11.00
2016,10,28,13,24,11.00
2016,10,28,13,25,11.00
2016,10,28,13,26,11.00
2016,10,28,13,27,11.00
2016,10,28,13,28,10.90
2016,10,28,13,29,10.90
2016,10,28,13,30,10.90
2016,10,28,13,31,10.90
2016,10,28,13,32,10.90
2016,10,28,13,33,10.90
2016,10,28,13,34,10.90
2016,10,28,13,35,10.90
2016,10,28,13,36,10.90
2016,10,28,13,37,10.90
2016,10,28,13,38,10.90
2016,10,28,13,39,11.00
2016,10,28,13,40,11.00
2016,10,28,13,41,11.00
2016,10,28,13,42,11.00
2016,10,28,13,43,11.10
2016,10,28,13,44,11.10
2016,10,28,13,45,11.00
2016,10,28,13,46,11.00
2016,10,28,13,47,11.10
2016,10,28,13,48,11.10
2016,10,28,13,49,11.10
2016,10,28,13,50,11.10
2016,10,28,13,51,11.10
2016,10,28,13,52,11.10
2016,10,28,13,53,11.10
2016,10,28,13,54,11.10
2016,10,28,13,55,11.20
2016,10,28,13,56,11.20
2016,10,28,13,57,11.20
2016,10,28,13,58,11.20
2016,10,28,13,59,11.20
2016,10,28,14,00,11.20
2016,10,28,14,01,11.20
2016,10,28,14,02,11.20
2016,10,28,14,03,11.20
2016,10,28,14,04,11.20
2016,10,28,14,05,11.20
2016,10,28,14,06,11.20
2016,10,28,14,07,11.20
2016,10,28,14,08,11.20
2016,10,28,14,09,11.20
2016,10,28,14,10,11.20
2016,10,28,14,11,11.10
2016,10,28,14,12,11.10
2016,10,28,14,13,11.10
2016,10,28,14,14,11.10
2016,10,28,14,15,11.10
2016,10,28,14,16,11.10
2016,10,28,14,17,11.10
2016,10,28,14,18,11.10
2016,10,28,14,19,11.20
2016,10,28,14,20,11.20
2016,10,28,14,21,11.20
2016,10,28,14,22,11.20
2016,10,28,14,23,11.20
2016,10,28,14,24,11.20
2016,10,28,14,25,11.20
2016,10,28,14,26,11.20
2016,10,28,14,27,11.20
2016,10,28,14,28,11.20
2016,10,28,14,29,11.20
2016,10,28,14,30,11.20
2016,10,28,14,31,11.20
2016,10,28,14,32,11.20
2016,10,28,14,33,11.20
2016,10,28,14,34,11.20
2016,10,28,14,35,11.20
2016,10,28,14,36,11.20
2016,10,28,14,37,11.20
2016,10,28,14,38,11.20
2016,10,28,14,39,11.20
2016,10,28,14,40,11.20
2016,10,28,14,41,11.20
2016,10,28,14,42,11.20
2016,10,28,14,43,11.20
2016,10,28,14,44,11.20
2016,10,28,14,45,11.20
2016,10,28,14,46,11.20
2016,10,28,14,47,11.20
2016,10,28,14,48,11.20
2016,10,28,14,49,11.20
2016,10,28,14,50,11.20
2016,10,28,14,51,11.20
2016,10,28,14,52,11.30
2016,10,28,14,53,11.30
2016,10,28,14,54,11.30
2016,10,28,14,55,11.30
2016,10,28,14,56,11.30
2016,10,28,14,57,11.30
2016,10,28,14,58,11.30
2016,10,28,14,59,11.30
2016,10,28,15,00,11.30
2016,10,28,15,01,11.30
2016,10,28,15,02,11.30
2016,10,28,15,03,11.30
2016,10,28,15,04,11.30
2016,10,28,15,05,11.40
2016,10,28,15,06,11.40
2016,10,28,15,07,11.40
2016,10,28,15,08,11.40
2016,10,28,15,09,11.40
2016,10,28,15,10,11.40
2016,10,28,15,11,11.40
2016,10,28,15,12,11.40
2016,10,28,15,13,11.40
2016,10,28,15,14,11.30
2016,10,28,15,15,11.30
2016,10,28,15,16,11.30
2016,10,28,15,17,11.30
2016,10,28,15,18,11.30
2016,10,28,15,19,11.30
2016,10,28,15,20,11.30
2016,10,28,15,21,11.30
2016,10,28,15,22,11.30
2016,10,28,15,23,11.30
2016,10,28,15,24,11.30
2016,10,28,15,25,11.30
2016,10,28,15,26,11.30
2016,10,28,15,27,11.30
2016,10,28,15,28,11.30
2016,10,28,15,29,11.30
2016,10,28,15,30,11.30
2016,10,28,15,31,11.30
2016,10,28,15,32,11.30
2016,10,28,15,33,11.30
2016,10,28,15,34,11.30
2016,10,28,15,35,11.30
2016,10,28,15,36,11.30
2016,10,28,15,37,11.30
2016,10,28,15,38,11.30
2016,10,28,15,39,11.30
2016,10,28,15,40,11.30
2016,10,28,15,41,11.30
2016,10,28,15,42,11.30
2016,10,28,15,43,11.30
2016,10,28,15,44,11.30
2016,10,28,15,45,11.20
2016,10,28,15,46,11.20
2016,10,28,15,47,11.20
2016,10,28,15,48,11.20
2016,10,28,15,49,11.20
2016,10,28,15,50,11.20
2016,10,28,15,51,11.20
2016,10,28,15,52,11.20
2016,10,28,15,53,11.20
2016,10,28,15,54,11.20
2016,10,28,15,55,11.20
2016,10,28,15,56,11.20
2016,10,28,15,57,11.20
2016,10,28,15,58,11.20
2016,10,28,15,59,11.20
2016,10,28,16,00,11.20
2016,10,28,16,01,11.20
2016,10,28,16,02,11.20
2016,10,28,16,03,11.20
2016,10,28,16,04,11.20
2016,10,28,16,05,11.20
2016,10,28,16,06,11.20
2016,10,28,16,07,11.20
2016,10,28,16,08,11.20
2016,10,28,16,09,11.20
2016,10,28,16,10,11.20
2016,10,28,16,11,11.20
2016,10,28,16,12,11.30
2016,10,28,16,13,11.30
2016,10,28,16,14,11.30
2016,10,28,16,15,11.30
2016,10,28,16,16,11.30
2016,10,28,16,17,11.30
2016,10,28,16,18,11.30
2016,10,28,16,19,11.30
2016,10,28,16,20,11.30
2016,10,28,16,21,11.30
2016,10,28,16,22,11.30
2016,10,28,16,23,11.30
2016,10,28,16,24,11.30
2016,10,28,16,25,11.30
2016,10,28,16,26,11.30
2016,10,28,16,27,11.30
2016,10,28,16,28,11.30
2016,10,28,16,29,11.30
2016,10,28,16,30,11.30
2016,10,28,16,31,11.30
2016,10,28,16,32,11.30
2016,10,28,16,33,11.30
2016,10,28,16,34,11.30
2016,10,28,16,35,11.30
2016,10,28,16,36,11.20
2016,10,28,16,37,11.20
2016,10,28,16,38,11.20
2016,10,28,16,39,11.20
2016,10,28,16,40,11.20
2016,10,28,16,41,11.20
2016,10,28,16,42,11.20
2016,10,28,16,43,11.10
2016,10,28,16,44,11.10
2016,10,28,16,45,11.10
2016,10,28,16,46,11.10
2016,10,28,16,47,11.10
2016,10,28,16,48,11.10
2016,10,28,16,49,11.10
2016,10,28,16,50,11.10
2016,10,28,16,51,11.10
2016,10,28,16,52,11.10
2016,10,28,16,53,11.00
2016,10,28,16,54,11.00
2016,10,28,16,55,11.00
2016,10,28,16,56,11.00
2016,10,28,16,57,11.00
2016,10,28,16,58,11.00
2016,10,28,16,59,11.00
2016,10,28,17,00,10.90
2016,10,28,17,01,10.90
2016,10,28,17,02,10.90
2016,10,28,17,03,10.90
2016,10,28,17,04,10.90
2016,10,28,17,05,10.90
2016,10,28,17,06,10.90
2016,10,28,17,07,10.90
2016,10,28,17,08,10.90
2016,10,28,17,09,10.90
2016,10,28,17,10,10.90
2016,10,28,17,11,10.90
2016,10,28,17,12,10.90
2016,10,28,17,13,10.90
2016,10,28,17,14,10.90
2016,10,28,17,15,10.90
2016,10,28,17,16,10.90
2016,10,28,17,17,10.90
2016,10,28,17,18,10.90
2016,10,28,17,19,10.90
2016,10,28,17,20,10.90
2016,10,28,17,21,10.90
2016,10,28,17,22,10.90
2016,10,28,17,23,10.90
2016,10,28,17,24,10.90
2016,10,28,17,25,10.90
2016,10,28,17,26,10.90
2016,10,28,17,27,10.80
2016,10,28,17,28,10.80
2016,10,28,17,29,10.80
2016,10,28,17,30,10.80
2016,10,28,17,31,10.80
2016,10,28,17,32,10.80
2016,10,28,17,33,10.80
2016,10,28,17,34,10.80
2016,10,28,17,35,10.80
2016,10,28,17,36,10.80
2016,10,28,17,37,10.80
2016,10,28,17,38,10.80
2016,10,28,17,39,10.80
2016,10,28,17,40,10.80
2016,10,28,17,41,10.80
2016,10,28,17,42,10.80
2016,10,28,17,43,10.80
2016,10,28,17,44,10.80
2016,10,28,17,45,10.80
2016,10,28,17,46,10.80
2016,10,28,17,47,10.80
2016,10,28,17,48,10.80
2016,10,28,17,49,10.80
2016,10,28,17,50,10.80
2016,10,28,17,51,10.80
2016,10,28,17,52,10.80
2016,10,28,17,53,10.80
2016,10,28,17,54,10.80
2016,10,28,17,55,10.80
2016,10,28,17,56,10.80
2016,10,28,17,57,10.80
2016,10,28,17,58,10.80
2016,10,28,17,59,10.80
2016,10,28,18,00,10.80
2016,10,28,18,01,10.80
2016,10,28,18,02,10.80
2016,10,28,18,03,10.80
2016,10,28,18,04,10.80
2016,10,28,18,05,10.80
2016,10,28,18,06,10.80
2016,10,28,18,07,10.80
2016,10,28,18,08,10.80
2016,10,28,18,09,10.80
2016,10,28,18,10,10.70
2016,10,28,18,11,10.70
2016,10,28,18,12,10.70
2016,10,28,18,13,10.70
2016,10,28,18,14,10.70
2016,10,28,18,15,10.70
2016,10,28,18,16,10.70
2016,10,28,18,17,10.70
2016,10,28,18,18,10.70
2016,10,28,18,19,10.70
2016,10,28,18,20,10.70
2016,10,28,18,21,10.70
2016,10,28,18,22,10.70
2016,10,28,18,23,10.60
2016,10,28,18,24,10.60
2016,10,28,18,25,10.60
2016,10,28,18,26,10.60
2016,10,28,18,27,10.60
2016,10,28,18,28,10.60
2016,10,28,18,29,10.60
2016,10,28,18,30,10.60
2016,10,28,18,31,10.60
2016,10,28,18,32,10.60
2016,10,28,18,33,10.60
2016,10,28,18,34,10.60
2016,10,28,18,35,10.60
2016,10,28,18,36,10.60
2016,10,28,18,37,10.60
2016,10,28,18,38,10.60
2016,10,28,18,39,10.60
2016,10,28,18,40,10.60
2016,10,28,18,41,10.60
2016,10,28,18,42,10.60
2016,10,28,18,43,10.50
2016,10,28,18,44,10.50
2016,10,28,18,45,10.50
2016,10,28,18,46,10.50
2016,10,28,18,47,10.50
2016,10,28,18,48,10.50
2016,10,28,18,49,10.50
2016,10,28,18,50,10.40
2016,10,28,18,51,10.40
2016,10,28,18,52,10.40
2016,10,28,18,53,10.40
2016,10,28,18,54,10.40
2016,10,28,18,55,10.40
2016,10,28,18,56,10.40
2016,10,28,18,57,10.40
2016,10,28,18,58,10.40
2016,10,28,18,59,10.40
2016,10,28,19,00,10.40
2016,10,28,19,01,10.40
2016,10,28,19,02,10.40
2016,10,28,19,03,10.40
2016,10,28,19,04,10.40
2016,10,28,19,05,10.40
2016,10,28,19,06,10.40
2016,10,28,19,07,10.30
2016,10,28,19,08,10.30
2016,10,28,19,09,10.30
2016,10,28,19,10,10.30
2016,10,28,19,11,10.30
2016,10,28,19,12,10.30
2016,10,28,19,13,10.30
2016,10,28,19,14,10.30
2016,10,28,19,15,10.30
2016,10,28,19,16,10.30
2016,10,28,19,17,10.30
2016,10,28,19,18,10.30
2016,10,28,19,19,10.30
2016,10,28,19,20,10.20
2016,10,28,19,21,10.20
2016,10,28,19,22,10.20
2016,10,28,19,23,10.20
2016,10,28,19,24,10.20
2016,10,28,19,25,10.20
2016,10,28,19,26,10.20
2016,10,28,19,27,10.20
2016,10,28,19,28,10.20
2016,10,28,19,29,10.20
2016,10,28,19,30,10.20
2016,10,28,19,31,10.20
2016,10,28,19,32,10.20
2016,10,28,19,33,10.20
2016,10,28,19,34,10.20
2016,10,28,19,35,10.20
2016,10,28,19,36,10.20
2016,10,28,19,37,10.20
2016,10,28,19,38,10.20
2016,10,28,19,39,10.20
2016,10,28,19,40,10.20
2016,10,28,19,41,10.20
2016,10,28,19,42,10.20
2016,10,28,19,43,10.20
2016,10,28,19,44,10.20
2016,10,28,19,45,10.20
2016,10,28,19,46,10.20
2016,10,28,19,47,10.20
2016,10,28,19,48,10.20
2016,10,28,19,49,10.20
2016,10,28,19,50,10.20
2016,10,28,19,51,10.20
2016,10,28,19,52,10.20
2016,10,28,19,53,10.20
2016,10,28,19,54,10.10
2016,10,28,19,55,10.10
2016,10,28,19,56,10.10
2016,10,28,19,57,10.10
2016,10,28,19,58,10.10
2016,10,28,19,59,10.10
2016,10,28,20,00,10.10
2016,10,28,20,01,10.10
2016,10,28,20,02,10.10
2016,10,28,20,03,10.10
2016,10,28,20,04,10.10
2016,10,28,20,05,10.10
2016,10,28,20,06,10.10
2016,10,28,20,07,10.10
2016,10,28,20,08,10.00
2016,10,28,20,09,10.00
2016,10,28,20,10,10.00
2016,10,28,20,11,10.00
2016,10,28,20,12,10.00
2016,10,28,20,13,10.00
2016,10,28,20,14,10.00
2016,10,28,20,15,10.00
2016,10,28,20,16,10.00
2016,10,28,20,17,10.00
2016,10,28,20,18,10.00
2016,10,28,20,19,10.00
2016,10,28,20,20,9.90
2016,10,28,20,21,9.90
2016,10,28,20,22,9.90
2016,10,28,20,23,9.90
2016,10,28,20,24,9.90
2016,10,28,20,25,9.90
2016,10,28,20,26,9.90
2016,10,28,20,27,9.90
2016,10,28,20,28,9.90
2016,10,28,20,29,9.90
2016,10,28,20,30,9.90
2016,10,28,20,31,9.90
2016,10,28,20,32,9.90
2016,10,28,20,33,9.90
2016,10,28,20,34,9.90
2016,10,28,20,35,9.90
2016,10,28,20,36,9.90
2016,10,28,20,37,9.90
2016,10,28,20,38,9.80
2016,10,28,20,39,9.80
2016,10,28,20,40,9.80
2016,10,28,20,41,9.90
2016,10,28,20,42,9.80
2016,10,28,20,43,9.80
2016,10,28,20,44,9.80
2016,10,28,20,45,9.80
2016,10,28,20,46,9.90
2016,10,28,20,47,9.90
2016,10,28,20,48,9.90
2016,10,28,20,49,9.90
2016,10,28,20,50,9.90
2016,10,28,20,51,9.90
2016,10,28,20,52,9.90
2016,10,28,20,53,9.90
2016,10,28,20,54,9.90
2016,10,28,20,55,9.90
2016,10,28,20,56,9.90
2016,10,28,20,57,9.80
2016,10,28,20,58,9.90
2016,10,28,20,59,9.80
2016,10,28,21,00,9.80
2016,10,28,21,01,9.80
2016,10,28,21,02,9.80
2016,10,28,21,03,9.80
2016,10,28,21,04,9.80
2016,10,28,21,05,9.80
2016,10,28,21,06,9.80
2016,10,28,21,07,9.80
2016,10,28,21,08,9.80
2016,10,28,21,09,9.80
2016,10,28,21,10,9.80
2016,10,28,21,11,9.80
2016,10,28,21,12,9.80
2016,10,28,21,13,9.80
2016,10,28,21,14,9.80
2016,10,28,21,15,9.80
2016,10,28,21,16,9.80
2016,10,28,21,17,9.80
2016,10,28,21,18,9.80
2016,10,28,21,19,9.80
2016,10,28,21,20,9.80
2016,10,28,21,21,9.80
2016,10,28,21,22,9.70
2016,10,28,21,23,9.80
2016,10,28,21,24,9.80
2016,10,28,21,25,9.70
2016,10,28,21,26,9.70
2016,10,28,21,27,9.70
2016,10,28,21,28,9.70
2016,10,28,21,29,9.70
2016,10,28,21,30,9.70
2016,10,28,21,31,9.70
2016,10,28,21,32,9.70
2016,10,28,21,33,9.70
2016,10,28,21,34,9.70
2016,10,28,21,35,9.70
2016,10,28,21,36,9.70
2016,10,28,21,37,9.70
2016,10,28,21,38,9.70
2016,10,28,21,39,9.70
2016,10,28,21,40,9.70
2016,10,28,21,41,9.70
2016,10,28,21,42,9.70
2016,10,28,21,43,9.70
2016,10,28,21,44,9.70
2016,10,28,21,45,9.70
2016,10,28,21,46,9.70
2016,10,28,21,47,9.70
2016,10,28,21,48,9.70
2016,10,28,21,49,9.70
2016,10,28,21,50,9.70
2016,10,28,21,51,9.70
2016,10,28,21,52,9.70
2016,10,28,21,53,9.70
2016,10,28,21,54,9.70
2016,10,28,21,55,9.70
2016,10,28,21,56,9.70
2016,10,28,21,57,9.70
2016,10,28,21,58,9.70
2016,10,28,21,59,9.70
2016,10,28,22,00,9.70
2016,10,28,22,01,9.70
2016,10,28,22,02,9.70
2016,10,28,22,03,9.70
2016,10,28,22,04,9.70
2016,10,28,22,05,9.70
2016,10,28,22,06,9.70
2016,10,28,22,07,9.70
2016,10,28,22,08,9.70
2016,10,28,22,09,9.70
2016,10,28,22,10,9.70
2016,10,28,22,11,9.70
2016,10,28,22,12,9.70
2016,10,28,22,13,9.70
2016,10,28,22,14,9.70
2016,10,28,22,15,9.70
2016,10,28,22,16,9.70
2016,10,28,22,17,9.70
2016,10,28,22,18,9.70
2016,10,28,22,19,9.70
2016,10,28,22,20,9.70
2016,10,28,22,21,9.70
2016,10,28,22,22,9.70
2016,10,28,22,23,9.70
2016,10,28,22,24,9.70
2016,10,28,22,25,9.70
2016,10,28,22,26,9.70
2016,10,28,22,27,9.70
2016,10,28,22,28,9.70
2016,10,28,22,29,9.70
2016,10,28,22,30,9.70
2016,10,28,22,31,9.70
2016,10,28,22,32,9.70
2016,10,28,22,33,9.70
2016,10,28,22,34,9.70
2016,10,28,22,35,9.70
2016,10,28,22,36,9.70
2016,10,28,22,37,9.60
2016,10,28,22,38,9.60
2016,10,28,22,39,9.60
2016,10,28,22,40,9.60
2016,10,28,22,41,9.60
2016,10,28,22,42,9.60
2016,10,28,22,43,9.60
2016,10,28,22,44,9.60
2016,10,28,22,45,9.60
2016,10,28,22,46,9.60
2016,10,28,22,47,9.60
2016,10,28,22,48,9.60
2016,10,28,22,49,9.60
2016,10,28,22,50,9.60
2016,10,28,22,51,9.60
2016,10,28,22,52,9.60
2016,10,28,22,53,9.60
2016,10,28,22,54,9.60
2016,10,28,22,55,9.60
2016,10,28,22,56,9.60
2016,10,28,22,57,9.60
2016,10,28,22,58,9.60
2016,10,28,22,59,9.60
2016,10,28,23,00,9.60
2016,10,28,23,01,9.60
2016,10,28,23,02,9.60
2016,10,28,23,03,9.60
2016,10,28,23,04,9.60
2016,10,28,23,05,9.60
2016,10,28,23,06,9.60
2016,10,28,23,07,9.50
2016,10,28,23,08,9.50
2016,10,28,23,09,9.50
2016,10,28,23,10,9.50
2016,10,28,23,11,9.50
2016,10,28,23,12,9.50
2016,10,28,23,13,9.50
2016,10,28,23,14,9.50
2016,10,28,23,15,9.50
2016,10,28,23,16,9.50
2016,10,28,23,17,9.50
2016,10,28,23,18,9.50
2016,10,28,23,19,9.50
2016,10,28,23,20,9.40
2016,10,28,23,21,9.40
2016,10,28,23,22,9.50
2016,10,28,23,23,9.40
2016,10,28,23,24,9.40
2016,10,28,23,25,9.40
2016,10,28,23,26,9.40
2016,10,28,23,27,9.40
2016,10,28,23,28,9.40
2016,10,28,23,29,9.40
2016,10,28,23,30,9.40
2016,10,28,23,31,9.40
2016,10,28,23,32,9.40
2016,10,28,23,33,9.40
2016,10,28,23,34,9.40
2016,10,28,23,35,9.40
2016,10,28,23,36,9.40
2016,10,28,23,37,9.40
2016,10,28,23,38,9.40
2016,10,28,23,39,9.30
2016,10,28,23,40,9.40
2016,10,28,23,41,9.40
2016,10,28,23,42,9.40
2016,10,28,23,43,9.40
2016,10,28,23,44,9.40
2016,10,28,23,45,9.40
2016,10,28,23,46,9.40
2016,10,28,23,47,9.40
2016,10,28,23,48,9.40
2016,10,28,23,49,9.40
2016,10,28,23,50,9.40
2016,10,28,23,51,9.30
2016,10,28,23,52,9.30
2016,10,28,23,53,9.30
2016,10,28,23,54,9.30
2016,10,28,23,55,9.30
2016,10,28,23,56,9.30
2016,10,28,23,57,9.30
2016,10,28,23,58,9.30
2016,10,28,23,59,9.30
